Regional Weather Roundup
Issued by NWS

Home | Current Version | Previous Version | Text Only | Print | Product List | Glossary On
Versions: 1 2 3 4 5 6 7 8 9 10 11 12 13 14 15 16 17 18 19 20 21 22 23 24 25 26 27 28 29 30 31 32 33 34 35 36 37 38 39 40 41 42 43 44 45 46 47 48 49 50
836
ASUS44 KLIX 171501
RWRLA
LOUISIANA WEATHER ROUNDUP
NATIONAL WEATHER SERVICE NEW ORLEANS LA
1000 AM CDT THU APR 17 2014

NOTE: "FAIR" INDICATES FEW OR NO CLOUDS BELOW 12,000 FEET WITH NO
      SIGNIFICANT WEATHER AND/OR OBSTRUCTIONS TO VISIBILITY.
      SKY/WX - SKY CONDITION AND SIGNIFICANT WEATHER.
      TMP - AIR TEMPERATURE.    DP   - DEWPOINT TEMPERATURE.
      RH  - RELATIVE HUMIDITY.  PRES - PRESSURE.
      HX  - HEAT INDEX.         WCI  - WIND CHILL INDEX.

*  THESE STATIONS ARE NOT NWS OR FAA STATIONS AND ARE NOT UNDER
   NWS QUALITY CONTROL.

LAZ040-048-061>063-065-066-069-171600-
SOUTHEAST LOUISIANA

CITY           SKY/WX    TMP DP  RH WIND       PRES   REMARKS
N.O. AUDUBON   NOT AVBL
N.O. INTL ARPT PTSUNNY   65  55  70 NE12      30.17S
N.O. LAKEFRONT CLOUDY    62  53  72 NE15      30.18S
N.O. DOWNTOWN* FAIR      63  52  67 NE7G16    30.18S
SLIDELL        CLOUDY    60  51  72 NE8       30.19S
BATON ROUGE    PTSUNNY   62  50  64 NE12      30.18S
BOOTHVILLE     MOSUNNY   67  61  81 NE6       30.16S
BELLE CHASSE   PTSUNNY   64  54  69 NE15      30.17S
BOGALUSA*        N/A     59  50  72 NE7       30.23S
GALLIANO*      NOT AVBL
NEW ROADS*     NOT AVBL
GONZALES*      FAIR      62  53  72 E8        30.17F
HAMMOND*       NOT AVBL
HOUMA*         CLOUDY    66  55  68 N12       30.16R
PORT FOURCHON* CLOUDY    66  59  77 NE9       30.17R

$$

LAZ041-044-053-054-171600-
SOUTHWEST LOUISIANA

CITY           SKY/WX    TMP DP  RH WIND       PRES   REMARKS
LAKE CHARLES   CLOUDY    58  50  75 E6        30.18R
LAFAYETTE      PTSUNNY   60  52  74 VRB3      30.17F
PATTERSON      PTSUNNY   63  54  72 NE8         N/A
SALT POINT       N/A     65  54  67 VRB3      30.15R
NEW IBERIA     CLOUDY    62  51  67 E9        30.17S
CHENAULT AIRPK CLOUDY    57  50  77 NE6       30.18

$$

LAZ027-028-171600-
CENTRAL LOUISIANA

CITY           SKY/WX    TMP DP  RH WIND       PRES   REMARKS
FORT POLK      PTSUNNY   58  46  64 SE7       30.17R
ALEXANDRIA INT MOSUNNY   60  48  64 SE7       30.18R
ALEXANDRIA     PTSUNNY   62  48  60 E6        30.19S

$$

LAZ001-002-171600-
NORTHWEST LOUISIANA

CITY           SKY/WX    TMP DP  RH WIND       PRES   REMARKS
SHREVEPORT     CLOUDY    57  48  72 E7        30.18F
BARKSDALE AFB  NOT AVBL
DTN SHREVEPORT CLOUDY    56  47  71 E6        30.19F

$$

LAZ014-016-171600-
NORTHEAST LOUISIANA

CITY           SKY/WX    TMP DP  RH WIND       PRES   REMARKS
MONROE         MOSUNNY   58  46  64 CALM      30.24S
TALLULAH       SUNNY     60  47  61 E9        30.24S

$$




USA.gov is the U.S. government's official web portal to all federal, state and local government web resources and services.